Theta_e
317 314 313 312 311 311 311 311 310 309 309 307 306 305 304 304 304 304 305 305 306 306 306 306 306 307 306 306 305 304 304 304 305 305 305 305 305 304 305 305 305 305 305
312 311 311 310 310 310 310 310 309 308 307 306 306 305 305 306 306 305 304 305 305 306 306 306 307 306 306 305 304 304 304 304 304 305 305 305 304 303 303 303 305 305 305
310 310 310 309 309 309 309 309 308 307 306 306 306 305 306 306 307 306 305 305 305 306 306 307 306 305 305 305 304 305 305 305 305 305 305 304 303 302 301 301 302 304 305
310 310 309 309 309 309 308 308 307 306 306 306 305 306 306 307 306 306 306 306 306 307 307 306 305 305 306 305 305 305 305 305 305 305 305 304 303 302 301 301 301 302 304
310 310 309 308 308 308 308 307 306 306 306 306 306 306 306 306 306 306 306 307 307 306 306 306 306 306 306 305 304 303 304 303 304 305 305 305 304 303 301 301 301 302 303
310 309 308 307 307 307 307 307 306 306 306 306 306 305 305 305 306 306 307 307 306 305 305 306 306 306 306 306 306 304 304 303 303 304 304 305 305 304 301 301 302 303 304
309 308 307 307 306 306 306 306 306 306 305 305 305 304 304 305 306 306 307 306 305 305 305 304 305 304 304 306 306 307 307 306 304 303 304 304 304 305 301 301 302 302 303
308 307 306 306 306 305 305 305 305 305 305 305 303 303 303 304 306 306 306 306 305 304 303 303 303 303 302 303 305 306 306 305 304 304 304 305 306 306 304 302 302 303 303
307 306 305 305 305 304 305 305 306 306 305 304 303 303 303 303 305 306 306 304 304 303 302 301 300 299 300 301 303 303 305 306 307 307 307 306 306 307 307 305 304 302 303
306 305 304 304 304 305 306 307 306 306 305 303 303 303 302 303 303 304 304 304 304 302 300 298 297 297 298 300 301 299 299 301 303 306 308 309 308 308 309 307 306 302 303
305 304 304 305 305 305 304 304 304 303 303 303 302 302 302 302 301 303 303 303 302 299 297 295 295 297 299 299 299 297 297 300 303 304 304 306 308 308 309 309 307 305 303
305 304 304 304 304 303 303 302 302 302 302 302 301 301 302 302 301 301 301 300 299 297 294 293 295 297 298 298 298 298 300 300 299 302 300 303 303 305 308 310 309 308 308
305 305 304 304 303 303 302 302 302 302 302 300 300 300 301 300 300 299 299 299 296 294 292 293 295 297 298 298 298 298 299 299 296 296 296 299 301 304 308 311 311 310 310
305 304 304 303 302 302 302 302 302 301 301 300 300 298 300 300 299 297 297 296 293 292 292 293 294 294 294 296 297 296 296 294 293 294 295 297 302 306 305 307 310 310 310
303 303 303 302 302 301 301 300 300 300 300 300 300 298 299 298 296 294 293 291 291 290 291 292 292 292 292 293 294 293 293 292 292 293 295 296 299 301 302 306 308 310 311
303 302 302 302 301 301 301 300 300 300 300 299 299 298 298 297 296 293 291 289 289 289 290 289 289 289 288 288 288 289 290 291 290 292 293 294 296 298 300 303 305 307 308
303 302 302 302 301 301 301 300 300 299 299 298 298 297 297 297 295 292 290 288 288 289 288 287 287 287 287 287 287 287 288 289 290 290 292 293 295 297 299 301 302 303 305
302 302 302 302 302 301 301 300 300 299 298 298 298 298 298 295 293 290 289 288 287 287 286 286 286 286 286 287 287 287 289 290 290 290 291 291 293 295 297 298 299 300 301
301 301 301 302 301 301 300 299 299 298 297 298 297 297 296 294 292 289 287 286 286 285 285 285 285 285 285 286 287 287 288 288 289 289 290 291 292 294 295 296 297 297 299
300 301 301 301 300 299 299 298 298 297 296 296 296 296 295 293 291 288 286 285 284 284 284 284 284 284 285 286 287 288 288 289 289 289 290 290 291 292 293 294 295 296 297
299 300 300 300 299 298 297 297 296 296 296 296 296 296 295 293 290 287 286 284 283 283 283 283 283 283 284 285 286 288 288 287 288 289 290 291 291 292 292 293 294 294 295
299 299 299 298 298 297 297 296 296 296 296 295 295 295 294 292 289 287 285 283 283 283 283 283 282 282 283 283 285 286 288 288 289 289 290 291 290 291 292 292 292 293 293
299 299 298 298 298 297 296 296 296 295 294 294 294 294 293 291 288 287 286 284 283 282 282 283 283 283 283 283 284 285 287 288 288 288 289 290 290 290 291 291 292 292 292
299 299 298 297 297 296 295 295 295 294 294 293 293 294 292 290 288 287 286 285 283 282 282 282 282 282 282 282 283 284 286 288 289 289 289 289 289 289 290 290 291 291 291
298 297 297 297 296 296 294 294 293 293 292 292 292 291 289 288 287 286 285 284 283 282 282 282 281 281 281 282 282 283 284 287 288 288 289 288 288 289 289 289 289 290 290
297 296 296 296 295 293 293 292 292 292 291 291 290 290 288 287 286 285 284 283 282 281 281 281 281 281 281 281 281 282 282 284 286 287 287 287 286 286 287 288 288 289 289
Wind_Speed
30 29 28 26 24 22 22 21 20 19 17 17 17 19 17 17 15 15 14 14 15 13 14 15 17 17 21 23 23 19 16 15 9 25 27 32 32 32 31 30 31 31 28
29 28 26 24 21 21 20 19 18 19 16 15 18 17 18 17 16 16 14 12 13 15 15 15 17 19 20 21 19 19 18 17 16 19 25 30 32 33 32 33 28 28 28
28 27 25 23 21 21 19 19 18 16 15 15 16 18 17 17 15 14 12 12 13 13 14 15 18 19 20 21 18 18 20 19 18 18 23 25 28 29 31 30 30 27 25
28 27 25 22 20 20 20 19 17 15 16 15 15 16 17 15 16 16 15 14 14 14 15 15 15 18 18 18 17 17 17 20 20 19 20 22 23 30 26 27 29 28 26
27 24 22 19 18 17 16 17 16 15 15 14 14 16 16 16 16 15 16 15 15 15 14 13 13 15 19 20 18 18 17 19 19 19 17 18 20 27 24 24 22 24 22
26 23 19 18 17 16 16 16 15 14 14 14 16 15 15 17 16 14 14 14 14 14 15 14 15 18 21 22 20 19 19 18 17 17 13 17 19 21 23 22 21 19 5
22 18 15 14 15 15 15 14 14 13 11 13 14 14 16 16 13 12 13 13 11 11 12 15 16 17 23 25 26 25 25 21 18 18 19 21 19 23 22 22 22 20 16
20 16 13 14 14 13 12 13 13 11 9 11 12 13 15 15 12 11 9 10 11 12 14 15 17 20 22 25 26 28 27 24 21 20 20 21 22 23 22 22 22 21 22
18 15 14 14 14 13 13 13 11 10 12 11 11 11 12 13 10 9 7 9 12 14 14 15 18 20 21 21 23 26 27 29 25 23 19 19 18 19 22 23 21 17 10
18 16 17 15 15 14 14 15 15 14 12 10 9 10 10 12 9 10 10 9 12 16 17 19 21 21 19 18 19 21 21 25 27 29 29 28 26 25 26 24 22 14 11
19 20 19 16 14 16 15 13 10 9 8 8 8 9 11 12 12 12 11 13 15 18 21 23 22 20 16 15 16 19 18 21 23 24 25 28 31 30 31 29 22 16 13
22 22 18 16 15 13 11 10 8 8 9 9 7 10 13 11 13 14 13 14 15 18 20 20 18 17 16 16 19 20 22 23 22 26 24 28 30 32 32 30 22 15 12
20 18 16 15 15 13 12 12 11 9 10 10 10 12 13 13 13 13 13 14 15 16 16 15 17 19 20 20 23 23 26 26 24 23 24 26 28 29 30 32 30 23 16
20 17 16 18 16 14 14 13 12 11 10 9 11 13 12 12 14 15 17 16 16 16 16 19 21 24 26 26 27 27 26 24 20 20 22 24 28 32 31 31 23 27 21
19 16 17 17 15 14 14 13 12 12 11 8 9 10 11 13 15 15 16 19 16 16 17 23 27 28 30 30 29 28 26 24 23 22 24 28 28 31 31 29 28 22 15
17 15 15 15 13 12 12 11 9 8 7 8 8 9 11 11 10 11 13 15 16 17 23 22 20 20 20 21 22 22 23 27 25 23 23 22 25 25 28 27 28 26 22
15 14 13 11 11 11 8 6 5 4 5 7 7 10 10 9 10 10 11 16 20 21 25 19 18 18 19 19 19 19 21 23 23 22 22 22 22 22 24 24 26 24 24
13 11 10 8 11 10 6 3 2 3 4 6 8 8 8 9 12 13 12 14 22 25 22 19 18 19 20 21 21 21 23 27 27 26 24 22 21 22 23 24 23 24 22
10 9 9 11 12 8 6 4 3 3 5 7 8 8 10 10 13 16 17 21 20 20 20 20 20 20 20 20 21 21 22 25 26 25 26 26 26 24 23 22 21 24 25
7 6 9 12 11 8 5 3 5 5 6 8 8 8 9 8 15 18 19 19 19 19 18 19 20 21 22 23 23 23 23 25 27 27 26 25 26 24 24 24 24 22 22
8 9 12 11 8 5 3 6 6 8 9 7 6 7 8 10 14 15 17 17 18 18 18 19 21 22 23 23 23 22 23 23 25 27 27 27 25 25 24 23 23 23 21
9 12 11 8 5 3 6 7 8 8 7 7 9 12 11 12 13 14 15 15 16 17 16 17 20 22 23 24 24 23 22 23 25 26 26 25 24 23 23 24 25 24 23
10 11 9 7 5 3 6 6 7 5 6 9 12 14 11 11 11 12 12 13 14 15 16 17 19 20 22 23 24 24 22 22 22 22 23 22 21 23 21 23 24 26 26
9 10 10 8 5 5 5 6 6 5 9 12 15 10 11 10 9 8 8 10 12 13 14 16 18 19 21 22 23 23 22 19 19 19 20 20 20 21 20 21 22 24 24
9 11 10 8 8 5 6 8 8 12 14 13 12 13 12 9 7 6 7 9 10 11 14 16 18 19 20 22 23 22 20 19 18 18 19 20 21 21 19 19 20 21 23
9 10 8 7 7 7 12 12 14 17 17 15 13 9 8 7 5 6 6 7 9 11 13 15 16 17 19 21 22 22 21 20 19 18 20 21 21 20 19 19 20 19 20
Wind_Direction
120 121 120 116 111 109 104 105 105 99 90 84 76 71 72 64 57 58 58 57 51 41 31 31 27 19 14 13 7 6 358 340 306 315 329 335 334 336 334 331 330 333 329
124 118 110 106 103 98 98 101 100 95 90 86 78 72 62 52 44 47 52 52 42 33 31 27 27 19 15 6 3 1 351 343 310 321 331 340 345 341 339 338 329 331 333
120 115 110 106 102 100 102 104 103 103 90 83 74 62 50 41 44 49 51 52 48 41 35 32 27 18 10 1 356 345 343 331 325 316 327 332 339 344 341 342 343 333 334
121 114 108 104 103 106 108 106 98 93 84 77 68 57 44 44 53 55 56 61 62 53 43 35 30 18 6 355 347 344 336 332 326 313 324 333 340 343 344 342 339 341 333
115 110 105 104 105 106 105 103 96 86 79 79 64 51 41 46 54 63 69 62 56 46 43 45 38 19 21 18 2 350 343 339 329 325 321 327 339 346 346 336 334 336 346
119 117 116 114 111 106 108 105 98 92 87 79 59 47 45 58 67 70 66 58 55 52 43 43 31 15 12 9 10 11 10 350 337 330 327 330 327 331 334 333 336 345 347
118 117 113 110 107 109 110 105 97 96 96 78 59 54 65 69 67 64 60 61 59 41 30 27 22 11 5 0 2 6 10 12 2 346 329 329 323 329 332 333 335 331 330
126 122 119 115 115 117 116 111 110 109 105 84 62 62 70 69 65 66 65 61 53 44 31 21 12 6 4 358 356 359 3 5 359 359 348 345 347 343 336 330 326 325 326
132 131 131 131 123 122 121 126 128 133 126 91 65 65 68 66 56 56 62 59 54 37 26 22 14 8 3 359 1 358 360 4 3 15 7 3 1 4 355 339 335 328 332
140 137 137 132 129 122 117 118 121 121 117 93 77 73 65 64 49 47 40 42 34 22 24 23 17 10 6 9 10 4 358 358 4 8 13 15 12 6 2 352 347 327 331
138 138 133 126 119 124 109 111 121 131 122 101 86 78 73 63 47 48 33 27 23 20 18 15 13 10 14 20 23 19 7 4 8 7 7 9 13 13 8 1 3 353 333
137 133 128 127 126 121 113 107 116 124 120 108 100 77 67 56 48 53 49 38 26 21 19 12 13 18 29 34 31 30 27 23 16 17 7 6 0 1 5 4 13 12 1
141 137 136 135 129 118 108 107 109 112 112 96 80 67 62 56 51 40 39 35 25 29 25 26 29 32 35 36 35 33 30 25 17 11 0 356 360 2 11 8 14 15 15
137 136 133 134 127 119 108 102 100 91 86 84 70 57 61 52 47 34 26 24 27 32 34 36 38 37 37 36 32 30 29 25 15 10 2 3 12 16 3 1 350 3 3
134 135 137 136 134 124 109 98 88 82 64 63 65 49 58 54 42 31 21 24 24 34 42 41 35 31 28 26 27 26 23 18 14 14 14 14 11 9 1 1 2 359 2
135 135 139 145 139 129 117 106 89 78 63 58 74 63 71 62 58 34 26 40 42 40 45 40 34 31 23 14 12 11 16 19 12 10 14 12 10 2 355 360 4 1 357
136 134 133 148 150 139 123 102 85 82 62 64 85 80 70 55 55 45 37 43 48 45 48 39 33 28 25 18 14 11 6 13 16 15 12 10 7 5 3 2 1 1 357
132 131 130 140 152 145 137 123 88 98 95 100 103 83 79 74 56 53 50 48 47 46 44 34 28 25 25 22 18 14 15 17 19 18 14 10 7 2 2 3 1 359 354
140 130 125 130 143 139 129 114 115 109 107 123 114 97 106 82 64 58 51 54 53 46 40 37 32 28 23 23 21 18 19 19 19 16 16 14 8 6 5 4 1 1 1
131 131 140 136 133 128 118 113 131 133 122 120 107 103 124 95 65 57 53 50 49 47 40 38 35 33 30 26 25 23 21 20 19 19 16 15 12 8 5 4 7 6 2
125 130 144 134 127 116 112 128 131 138 133 115 102 107 126 99 84 68 56 49 46 43 38 36 36 33 31 31 29 25 22 19 19 19 16 17 13 8 8 8 8 9 8
141 147 143 133 111 96 131 130 138 141 122 110 101 116 129 102 85 72 60 51 47 44 40 39 39 37 33 29 27 25 24 21 19 19 20 19 15 13 12 13 12 12 13
160 159 154 142 118 133 147 148 150 144 123 121 123 125 126 117 96 77 61 51 44 41 39 39 41 40 38 35 32 27 23 21 19 17 18 19 17 18 15 15 15 14 14
169 172 168 159 154 165 165 162 162 141 135 130 123 119 142 131 106 85 62 48 43 41 41 42 41 39 37 36 35 32 28 24 24 25 25 24 21 22 20 20 19 16 15
179 179 178 177 174 184 188 164 149 145 142 138 129 133 131 126 113 88 60 46 43 42 41 41 41 38 38 37 35 32 29 30 28 27 31 31 28 26 23 22 20 22 21
177 179 180 183 178 163 155 150 148 149 142 134 129 134 138 130 107 78 60 51 48 46 45 44 42 40 38 37 34 31 29 29 29 28 32 31 29 27 23 21 20 23 23